Terminal Aerodrome Forecast
Issued by NWS

Home | Current Version | Previous Version | Graphics & Text | Print | Product List | Glossary On
Versions: 1 2 3 4 5 6 7 8 9 10 11 12 13
491
FTUS43 KICT 111728 AAA
TAFCNU
TAF AMD
KCNU 111728Z 1117/1218 05008KT P6SM SKC
     FM112200 08004KT P6SM SKC
     FM120900 24006KT P6SM SCT250
     FM121100 30008KT P6SM SCT250
     FM121500 35015G21KT P6SM SCT120=

USA.gov is the U.S. government's official web portal to all federal, state and local government web resources and services.